www.pogodaiklimat.ru

Погода и климат >> Архив погоды >> Россия >> Якутия >> Усть-Мая


ПОГОДА в Усть-Мае

АРХИВ ПОГОДЫ в Усть-Мае

Время (UTC), дата Ветер
(напр.,м/с)
 
Видим.   Явления Облачность Т
(С)
Тd
(С)
f
(%)
Тe
(С)
Тes
(С)
Комфортность P
(гПа)
Po
(гПа)
Тmin
(С)
Tmax
(С)
R
(мм)
R24
(мм)
S
(см)
21 18.04 С 1 50 км 3/0
[Ac trans]
-6.1 -8.7 82 -8 -8 1006.8 985.3 -7.0 17
00 19.04 С 2 50 км ясно +1.6 -5.8 58 -1 +5 1004.9 984.1
03 19.04 ЮВ 4 50 км ясно +9.0 -4.2 39 +7 +13 1002.9 982.6
06 19.04 ЮВ 3 50 км 3/0
[Ci fib]
+10.0 -4.7 35 +8 +13 1001.6 981.4
09 19.04 В 3 50 км 1/0
[Ac trans]
+9.3 -3.4 41 +8 +8 1001.4 981.2 +10.7
12 19.04 С 2 50 км 3/0
[Ac trans Ci fib]
+3.7 -4.5 55 +1 +1 1002.6 982.0
15 19.04 СЗ 3 50 км 3/0
[Ac trans Ci fib]
+2.1 -4.8 60 -2 -2 1003.8 983.0
18 19.04 СЗ 3 50 км 8/0
[Ac As Ci fib]
+0.2 -1.8 86 -4 -4 1006.9 986.0
21 19.04 З 2 50 км 10/6 630 м
[Cb cap Ac As]
+0.6 -1.2 88 -3 -3 1008.4 987.4 0.0 11
00 20.04 З 3 20 км 10/8 630 м
[Cb cap Ac As]
+0.3 -1.6 87 -4 -4 1009.6 988.6
03 20.04 СЗ 3 2000 м ливневой снег 10/10 570 м
[Cb cap]
+0.2 0.0 99 -5 -5 1010.6 989.5
06 20.04 СЗ 2 2000 м ливневой снег 10/10 540 м
[Cb cap]
+0.5 -0.1 96 -3 -3 1010.9 989.9
09 20.04 СЗ 1 20 км слабый ливневой снег 10/8 600 м
[Cb cap Cs]
+1.4 -0.2 89 -1 -0 1011.0 990.1 +1.9 2
12 20.04 штиль 0 20 км слабый ливневой снег 10/8 630 м
[Cb cap Ac As]
-0.7 -0.2 100 -2 -2 1011.9 990.8
15 20.04 ЮЗ 2 50 км {ливн. осадки} 10/4 600 м
[Cb cap Ac trans Cs]
-1.4 -2.3 94 -5 -5 1012.0 990.8
18 20.04 З 1 50 км {ливн. осадки} 10/4 600 м
[Cb cap Ac trans Cs]
-2.3 -2.9 96 -5 -5 1012.5 991.2
21 20.04 СЗ 2 50 км 10/0
[Ac As Cs]
-1.8 -7.5 65 -5 -5 1014.3 993.0 -2.5 0.4 11
00 21.04 СЗ 4 50 км 10/0
[As trans Cs]
+1.0 -9.5 45 -3 -1 1015.6 994.5
03 21.04 СЗ 4
{10}
50 км 10/0
[Ac trans Cs]
+3.2 -8.7 41 -1 +5 1016.4 995.4
06 21.04 СЗ 4
{10}
50 км 10/4 1000 м
[Cb cap Ci fib]
+3.3 -8.8 41 -1 +2 1016.6 995.6
09 21.04 СЗ 3 50 км 6/4 600 м
[Cb cap Ci fib]
+2.6 -8.9 42 -1 -0 1017.7 996.7 +4.3
12 21.04 СЗ 2 50 км 3/0
[Ac trans]
-1.2 -10.2 50 -4 -4 1019.6 998.3
15 21.04 З 2 50 км ясно -3.8 -11.1 57 -7 -7 1020.2 998.6
18 21.04 штиль 0 50 км 3/0
[Ac trans]
-7.2 -9.3 85 -8 -8 1021.4 999.5
21 21.04 Ю 1 50 км 6/0
[Ac trans]
-8.3 -11.3 79 -11 -10 1022.1 1000.1 -9.2 4
00 22.04 Ю 4 50 км 1/0
[Ac trans]
+0.2 -8.1 54 -5 -0 1021.1 999.8
03 22.04 СЗ 4 50 км 4/4 1000 м
[Cu med, cong]
+3.5 -8.6 41 -0 +4 1020.3 999.3
06 22.04 З 3 50 км 6/6 1000 м
[Cu med, cong]
+4.4 -8.6 38 +2 +4 1019.3 998.4
09 22.04 СЗ 2 50 км 8/4 1000 м
[Sc diur, vesp Ci fib]
+4.1 -8.9 38 +2 +3 1018.9 997.9 +5.3
12 22.04 штиль 0 50 км 4/0
[Ac trans]
-1.5 -7.9 62 -2 -2 1019.6 998.2
15 22.04 штиль 0 50 км 10/0
[Ac trans Ci fib]
-4.0 -5.4 90 -5 -5 1019.8 998.2
18 22.04 штиль 0 50 км 6/0
[Ac trans Ci fib]
-6.9 -7.7 94 -8 -8 1020.0 998.1
21 22.04 СВ 1 50 км 10/0
[Ci fib]
-6.0 -7.9 86 -8 -7 1020.2 998.4 -7.5 3
00 23.04 СВ 2 50 км 8/0
[Ci fib]
+0.5 -7.0 57 -2 +3 1019.2 998.0
03 23.04 В 2 50 км 8/0
[Ci fib]
+6.1 -7.6 37 +5 +13 1017.1 996.3
06 23.04 ЮВ 1 50 км 6/0
[Ci fib]
+7.9 -6.6 35 +8 +15 1014.8 994.1
09 23.04 В 2 50 км 6/0
[Ac trans Ci fib]
+7.3 -5.8 39 +6 +7 1013.0 992.4 +8.5
12 23.04 В 1 50 км 10/0
[Ac As]
+4.6 -6.8 43 +4 +4 1012.6 991.8
15 23.04 В 1 50 км 10/3 1000 м
[Sc Ac As]
+3.1 -5.9 52 +2 +2 1010.3 989.5
18 23.04 ЮВ 4 50 км 8/0
[Ac trans Ci fib]
+2.6 -6.7 50 -2 -2 1007.7 986.8
21 23.04 Ю 4 50 км 10/0
[Ac trans Cs]
+3.0 -6.2 51 -1 -1 1005.2 984.5 +2.5 1
00 24.04 ЮЗ 2 50 км 10/0
[Ac As]
+6.3 -3.2 51 +5 +7 1003.1 982.6
03 24.04 З 1
{13}
20 км слабый ливневой дождь 10/8 420 м
[Cb cap Cs]
+3.8 +3.0 95 +2 +4 1005.5 984.8
06 24.04 СЗ 6-11
{11}
50 км {ливн. осадки} 6/4 300 м
[Cb cap Ac trans Ci fib]
+4.9 -2.5 59 0 +2 1005.9 985.3
09 24.04 СЗ 3
{11}
50 км 6/4 600 м
[Cb cap Ci fib]
+3.3 -5.4 53 0 +1 1006.2 985.4 +7.5 1
12 24.04 СЗ 1
{10}
50 км 3/0
[Ac trans]
-0.6 -6.2 66 -2 -2 1007.1 986.0
15 24.04 СЗ 1 50 км 4/0
[Ac trans Ci fib]
-4.3 -6.6 84 -7 -7 1007.4 986.0
18 24.04 З 2 50 км 1/0
[Ac trans]
-6.6 -8.2 88 -11 -11 1007.0 985.5
21 24.04 СЗ 1 50 км 3/3 1000 м
[Sc Ci fib]
-5.0 -6.9 86 -7 -7 1007.5 986.1 -8.6 1
00 25.04 СЗ 3 50 км 4/4 1000 м
[Cu hum]
-0.3 -9.6 49 -4 -1 1007.3 986.2
03 25.04 З 4 50 км 6/6 600 м
[Cb cap]
+0.9 -9.5 46 -4 -1 1006.8 985.8
06 25.04 З 3
{10}
50 км 8/8 720 м
[Cb cap Ci fib]
+1.1 -10.3 42 -2 -1 1006.7 985.8
09 25.04 СЗ 2 50 км 9/5 600 м
[Cb cap Ci fib]
+0.1 -9.7 48 -3 -2 1007.8 986.8 +1.7
12 25.04 СЗ 4 50 км 8/4 600 м
[Cb cap Ac trans]
-2.4 -7.6 67 -8 -8 1010.1 988.8
15 25.04 СЗ 1 50 км 6/3 600 м
[Cb cap Ac trans]
-4.7 -6.6 87 -7 -7 1011.0 989.6
18 25.04 СЗ 3 50 км 6/3 600 м
[Cb cap Ac trans Ci fib]
-6.5 -7.9 90 -12 -12 1012.5 990.9

 

Местоположение метеостанции Усть-Мая (Якутия, Россия): широта 60.35 долгота 134.40 высота над уровнем моря 170 м.

В архиве по умолчанию представлена погода в Усть-Мае за последнюю неделю. Архивные данные за месяц целиком и за предыдущие месяцы, начиная с января 2011 года, Вы можете получить, выбрав интересующий диапазон дат из раскрывающегося списка и нажав кнопку "Ввод!".


*Определитесь, кто Вы:
робот инопланетянин человек

Внимание! Время в таблицах - всемирное. Для получения местного времени необходимо прибавить поправку, которая в Усть-Мае равна 9 ч.

Смотрите также архив погоды в соседних городах и на ближайших метеорологических станциях:

Погода в Усть-Миле (Якутия, Россия) (112 км)
Погода в Усть-Юдоме (Якутия, Россия) (136 км)
Погода в Амге (Якутия, Россия) (149 км)
Погода в Охотском Перевозе (Якутия, Россия) (179 км)
Погода в Югоренке (Якутия, Россия) (189 км)
Погода в Чурапче (Якутия, Россия) (210 км)
Погода в Ытык-Кюёле (Якутия, Россия) (230 км)
Погода в Тегюльте (Якутия, Россия) (242 км)
Погода в Крест-Хальджае (Якутия, Россия) (275 км)
Погода в Учуре (Якутия, Россия) (280 км)

Пояснения к столбцам:

Ветер - указаны скорость ветра в м/с - средняя за 10 мин, порывы в срок и между сроками (в фигурных скобках) и направление, откуда дует ветер: С - северный, СВ - северо-восточный, В - восточный, ЮВ - юго-восточный, Ю - южный, ЮЗ - юго-западный, З - западный, СЗ - северо-западный.
Видимость - горизонтальная дальность видимости в метрах или километрах. При видимости от 1 до 10 км при отсутствии осадков обычно наблюдается дымка, при ухудшении видимости до 1 км и менее - туман. В сухую погоду видимость может ухудшаться дымом, пылью или мглою.
Явления - указаны атмосферные явления, наблюдавшиеся в срок или в последний час перед сроком; фигурными скобками обозначены явления, наблюдавшиеся между сроками (за 1-3 часа до срока); квадратными скобками обозначены град или гололедные отложения с указанием их диаметра в мм.
Облачность - указаны через наклонную черту общая и нижняя облачность в баллах и высота нижней границы облаков в метрах; квадратными скобками обозначены формы облаков: Ci - перистые, Cs - перисто-слоистые, Cc - перисто-кучевые, Ac - высококучевые, As - высокослоистые, Sc - слоисто-кучевые, Ns - слоисто-дождевые, Cu - кучевые, Cb - кучево-дождевые. Подробнее классификацию облаков см. в Атласе облаков (PDF).
T - Температура воздуха - температура, измеренная на высоте 2 м над землей.
Td - Температура точки росы - температура, при понижении до которой содержащийся в воздухе водяной пар достигнет насыщения.
f - Относительная влажность воздуха - влажноcть воздуха, измеренная на высоте 2 м над землей.
Te - Эффективная температура - температура, которую ощущает одетый по сезону человек в тени. Характеристика душности погоды. При расчете учитывается влияние влажности воздуха и скорости ветра на теплоощущения человека.
Tes - Эффективная температура на солнце - температура, которую ощущает человек, с поправкой на солнечный нагрев. Характеристика знойности погоды. Зависит от высоты солнца над горизонтом, облачности и скорости ветра. Ночью, в пасмурную погоду, а также при ветре 12 м/с и более поправка равна нулю.
P - Атмосферное давление - приведенное к уровню моря атмосферное давление.
Po - Атмосферное давление - измеренное на уровне метеостанции атмосферное давление.
Tmin - Минимальная температура - минимум температуры воздуха на высоте 2 м над землей.
Tmax - Максимальная температура - максимум температуры воздуха на высоте 2 м над землей.
R - Количество осадков - Количество выпавших осадков за период времени, мм. При наведении курсора мыши на число - период времени, за который выпало указанное количество осадков.
R24 - Количество осадков - Количество выпавших осадков за 24 часа, мм.
S - Снежный покров - Высота снежного покрова, см. При наведении курсора мыши на число - состояние снежного покрова и степень покрытия местности в баллах.